Date String (YYYY-MM-DD hh:mm:ss) UTC,Instrument flags,Ambient pressure (hPa),Sample flow (lpm),Bypass flow (lpm),Sample temperature (°C),Ambient temperature (°C),ASC tube jacket temperature (°C),LED temperature (°C),Box temperature (°C),Sample RH (%),Span deviation,Mass concentration (μg/m³),Mass concentration (μg/m³),Mass concentration (μg/m³)
DateTimeUTC,F1_M11,P_M11,Q1_M11,Q2_M11,T1_M11,T2_M11,T3_M11,T4_M11,T5_M11,U1_M11,ZSPAN_M11,X0_M11,X2_M11,X1_M11
2022-09-15 12:00:00,,0825.6,5.01,0.00,31.0,29.5,00.0,39.7,32.7,22.6,0000.0,0004.49,0002.25,0001.92
2022-09-15 12:01:00,,0825.6,5.00,0.00,31.0,29.4,00.0,39.7,32.7,22.8,0000.0,0004.56,0002.30,0001.94
2022-09-15 12:02:00,,0825.6,4.99,0.00,31.0,29.4,00.0,39.7,32.7,22.7,0000.0,0004.55,0002.29,0001.95
2022-09-15 12:03:00,,0825.7,5.01,0.00,31.0,29.5,00.0,39.7,32.7,22.7,0000.0,0004.55,0002.32,0001.96
2022-09-15 12:04:00,,0825.7,4.99,0.00,31.0,29.5,00.0,39.7,32.7,22.7,0000.0,0004.47,0002.35,0001.98
2022-09-15 12:05:00,,0825.7,5.01,0.00,31.0,29.4,00.0,39.8,32.7,22.6,0000.0,0004.34,0002.32,0002.00
2022-09-15 12:06:00,,0825.7,5.00,0.00,31.0,29.4,00.0,39.8,32.7,22.6,0000.0,0003.98,0002.31,0002.01
2022-09-15 12:07:00,,0825.7,4.99,0.00,31.0,29.4,00.0,39.8,32.7,22.6,0000.0,0003.82,0002.35,0002.03
2022-09-15 12:08:00,,0825.7,5.01,0.00,31.0,29.4,00.0,39.8,32.7,22.5,0000.0,0003.98,0002.39,0002.04
2022-09-15 12:09:00,,0825.7,4.99,0.00,31.0,29.5,00.0,39.8,32.7,22.5,0000.0,0004.48,0002.39,0002.05
2022-09-15 12:10:00,,0825.6,4.99,0.00,31.0,29.5,00.0,39.8,32.7,22.5,0000.0,0004.39,0002.38,0002.06
2022-09-15 12:11:00,,0825.7,5.01,0.00,31.0,29.5,00.0,39.8,32.7,22.5,0000.0,0003.94,0002.43,0002.06
2022-09-15 12:12:00,,0825.7,4.99,0.00,31.0,29.5,00.0,39.8,32.8,22.5,0000.0,0004.12,0002.45,0002.06
2022-09-15 12:13:00,,0825.8,5.00,0.00,31.0,29.5,00.0,39.8,32.8,22.4,0000.0,0005.08,0002.46,0002.07
2022-09-15 12:14:00,,0825.7,5.01,0.00,31.0,29.5,00.0,39.8,32.8,22.4,0000.0,0005.18,0002.49,0002.09
2022-09-15 12:15:00,,0825.7,4.99,0.00,31.0,29.5,00.0,39.8,32.8,22.4,0000.0,0005.24,0002.53,0002.10
2022-09-15 12:16:00,,0825.9,5.01,0.00,31.0,29.5,00.0,39.8,32.8,22.4,0000.0,0006.60,0002.60,0002.14
2022-09-15 12:17:00,,0826.1,5.01,0.00,31.0,29.5,00.0,39.8,32.8,22.3,0000.0,0006.62,0002.62,0002.15
2022-09-15 12:18:00,,0826.3,4.98,0.00,31.0,29.5,00.0,39.8,32.8,22.3,0000.0,0006.58,0002.63,0002.17
2022-09-15 12:19:00,,0826.0,5.00,0.00,31.0,29.5,00.0,39.8,32.8,22.3,0000.0,0006.53,0002.64,0002.19
2022-09-15 12:20:00,,0825.8,5.00,0.00,31.0,29.6,00.0,39.8,32.8,22.3,0000.0,0005.98,0002.65,0002.19
2022-09-15 12:21:00,,0825.8,4.99,0.00,31.0,29.5,00.0,39.8,32.8,22.4,0000.0,0006.00,0002.64,0002.17
2022-09-15 12:22:00,,0825.8,5.00,0.00,31.0,29.5,00.0,39.8,32.8,22.3,0000.0,0005.82,0002.58,0002.16
2022-09-15 12:23:00,,0825.9,5.01,0.00,31.0,29.5,00.0,39.8,32.8,22.3,0000.0,0005.61,0002.54,0002.16
2022-09-15 12:24:00,,0825.8,4.99,0.00,31.0,29.6,00.0,39.8,32.8,22.3,0000.0,0004.94,0002.52,0002.16
2022-09-15 12:25:00,,0825.9,5.00,0.00,31.1,29.2,00.0,39.8,32.8,22.3,0000.0,0005.03,0002.52,0002.16
2022-09-15 12:26:00,,0825.8,5.00,0.00,31.0,27.5,00.0,39.7,32.7,22.3,0000.0,0005.16,0002.51,0002.16
2022-09-15 12:27:00,,0825.9,5.01,0.00,30.9,26.4,00.0,39.7,32.5,22.4,0000.0,0004.04,0002.48,0002.16
2022-09-15 12:28:00,,0826.0,4.99,0.00,30.8,26.4,00.0,39.6,32.4,22.5,0000.0,0003.85,0002.49,0002.16
2022-09-15 12:29:00,,0826.1,4.99,0.00,30.7,26.7,00.0,39.5,32.1,22.8,0000.0,0003.94,0002.52,0002.15
2022-09-15 12:30:00,,0826.1,5.01,0.00,30.6,27.1,00.0,39.5,32.1,23.0,0000.0,0003.99,0002.55,0002.16
2022-09-15 12:31:00,,0826.2,5.00,0.00,30.5,27.4,00.0,39.4,32.0,23.1,0000.0,0004.02,0002.57,0002.17
2022-09-15 12:32:00,,0825.7,5.01,0.00,30.5,27.7,00.0,39.4,32.0,23.2,0000.0,0004.02,0002.60,0002.20
2022-09-15 12:33:00,,0825.8,5.01,0.00,30.4,28.0,00.0,39.3,32.0,23.3,0000.0,0004.34,0002.67,0002.24
2022-09-15 12:34:00,,0825.8,5.00,0.00,30.4,28.2,00.0,39.3,32.0,23.4,0000.0,0004.97,0002.70,0002.27
2022-09-15 12:35:00,,0825.9,5.02,0.00,30.4,28.3,00.0,39.3,32.0,23.4,0000.0,0005.11,0002.79,0002.30
2022-09-15 12:36:00,,0826.0,4.99,0.00,30.4,28.3,00.0,39.3,32.1,23.5,0000.0,0004.99,0002.88,0002.33
2022-09-15 12:37:00,,0825.9,5.01,0.00,30.4,28.5,00.0,39.2,32.1,23.6,0000.0,0005.75,0002.93,0002.35
2022-09-15 12:38:00,,0825.9,5.00,0.00,30.4,28.6,00.0,39.2,32.1,23.8,0000.0,0006.20,0002.98,0002.36
2022-09-15 12:39:00,,0826.0,5.00,0.00,30.4,28.6,00.0,39.2,32.1,23.8,0000.0,0006.17,0002.96,0002.35
2022-09-15 12:40:00,,0826.0,5.00,0.00,30.4,28.7,00.0,39.2,32.1,23.9,0000.0,0006.27,0002.97,0002.37
2022-09-15 12:41:00,,0826.1,4.99,0.00,30.4,28.7,00.0,39.2,32.1,23.8,0000.0,0006.42,0003.00,0002.37
2022-09-15 12:42:00,,0826.2,5.01,0.00,30.4,28.8,00.0,39.2,32.1,23.8,0000.0,0006.48,0003.02,0002.38
2022-09-15 12:43:00,,0826.2,4.99,0.00,30.4,28.8,00.0,39.2,32.1,23.8,0000.0,0006.46,0003.01,0002.38
2022-09-15 12:44:00,,0826.1,4.99,0.00,30.4,28.9,00.0,39.2,32.2,23.7,0000.0,0006.53,0003.01,0002.37
2022-09-15 12:45:00,,0826.1,5.00,0.00,30.4,28.9,00.0,39.2,32.2,23.7,0000.0,0006.01,0003.08,0002.38
2022-09-15 12:46:00,,0826.2,5.01,0.00,30.4,28.9,00.0,39.2,32.2,23.8,0000.0,0006.16,0003.10,0002.39
2022-09-15 12:47:00,,0826.2,5.00,0.00,30.4,28.9,00.0,39.2,32.2,23.8,0000.0,0006.30,0003.07,0002.38
2022-09-15 12:48:00,,0826.2,4.99,0.00,30.4,29.0,00.0,39.2,32.2,23.8,0000.0,0006.79,0003.09,0002.38
2022-09-15 12:49:00,,0826.2,5.01,0.00,30.4,29.0,00.0,39.2,32.2,23.8,0000.0,0006.68,0003.11,0002.40
2022-09-15 12:50:00,,0826.2,4.99,0.00,30.4,29.0,00.0,39.2,32.2,23.7,0000.0,0006.91,0003.16,0002.42
2022-09-15 12:51:00,,0826.2,5.00,0.00,30.5,29.0,00.0,39.2,32.2,23.6,0000.0,0007.05,0003.21,0002.45
2022-09-15 12:52:00,,0826.1,4.99,0.00,30.5,29.0,00.0,39.2,32.2,23.6,0000.0,0007.55,0003.22,0002.46
2022-09-15 12:53:00,,0826.1,5.01,0.00,30.5,29.0,00.0,39.2,32.3,23.6,0000.0,0007.50,0003.19,0002.46
2022-09-15 12:54:00,,0826.1,5.00,0.00,30.5,29.0,00.0,39.2,32.3,23.5,0000.0,0007.60,0003.21,0002.46
2022-09-15 12:55:00,,0826.1,5.00,0.00,30.5,29.0,00.0,39.3,32.3,23.6,0000.0,0007.80,0003.26,0002.48
2022-09-15 12:56:00,,0826.2,4.99,0.00,30.5,29.1,00.0,39.3,32.3,23.6,0000.0,0008.06,0003.28,0002.48
2022-09-15 12:57:00,,0826.2,5.00,0.00,30.5,29.1,00.0,39.3,32.3,23.6,0000.0,0008.12,0003.27,0002.49
2022-09-15 12:58:00,,0826.2,5.00,0.00,30.5,29.1,00.0,39.3,32.3,23.6,0000.0,0008.07,0003.27,0002.51
2022-09-15 12:59:00,,0826.1,5.01,0.00,30.5,29.1,00.0,39.3,32.3,23.7,0000.0,0008.20,0003.26,0002.51
